| time (UTC) | temp F | wind direction | speed knots | gust knots | rain 1hr in | rain 24hr in | rain mn in | humidity % | barometer mb |
| 20260507002044 | 59 | 180 | 0.0 | 0.0 | 0.00 | 1.09 | 0.00 | 66 | 1008.1 |
| 20260507001545 | 59 | 180 | 0.0 | 0.0 | 0.00 | 1.09 | 0.00 | 65 | 1008.1 |
| 20260507001046 | 59 | 180 | 0.0 | 0.0 | 0.00 | 1.09 | 0.00 | 65 | 1008.0 |
| 20260507000552 | 59 | 180 | 0.0 | 0.0 | 0.00 | 1.09 | 0.00 | 65 | 1007.8 |
| 20260507000547 | 59 | 180 | 0.0 | 0.0 | 0.00 | 1.09 | 0.00 | 65 | 1007.8 |
| 20260507000048 | 59 | 180 | 0.0 | 0.0 | 0.00 | 1.09 | 0.00 | 65 | 1008.0 |
| 20260506235550 | 59 | 180 | 0.0 | 0.0 | 0.00 | 1.09 | 0.00 | 66 | 1008.2 |
| 20260506235051 | 58 | 180 | 0.0 | 0.0 | 0.00 | 1.09 | 0.00 | 66 | 1008.1 |
| 20260506234557 | 58 | 180 | 0.0 | 0.0 | 0.00 | 1.09 | 0.00 | 67 | 1008.1 |
| 20260506234552 | 58 | 180 | 0.0 | 0.0 | 0.00 | 1.09 | 0.00 | 67 | 1008.1 |
| 20260506234054 | 58 | 180 | 0.0 | 0.0 | 0.00 | 1.09 | 0.00 | 66 | 1008.1 |
| 20260506233554 | 58 | 180 | 0.0 | 0.0 | 0.00 | 1.09 | 0.00 | 66 | 1008.1 |
| 20260506233056 | 58 | 180 | 0.0 | 0.0 | 0.00 | 1.09 | 0.00 | 66 | 1008.0 |
| 20260506232557 | 58 | 176 | 0.0 | 0.9 | 0.00 | 1.09 | 0.00 | 66 | 1008.0 |
| 20260506232058 | 59 | 180 | 0.9 | 1.7 | 0.00 | 1.09 | 0.00 | 66 | 1008.2 |
| 20260506231559 | 59 | 333 | 0.9 | 1.7 | 0.00 | 1.09 | 0.00 | 66 | 1008.0 |
| 20260506231101 | 59 | 302 | 0.9 | 1.7 | 0.00 | 1.09 | 0.00 | 65 | 1008.2 |
| 20260506230602 | 59 | 49 | 0.0 | 0.9 | 0.00 | 1.09 | 0.00 | 64 | 1008.2 |
| 20260506230103 | 59 | 49 | 0.9 | 1.7 | 0.00 | 1.09 | 0.00 | 63 | 1008.2 |
| 20260506225604 | 60 | 104 | 0.9 | 2.6 | 0.00 | 1.09 | 0.00 | 63 | 1008.1 |
| 20260506225110 | 60 | 67 | 0.9 | 2.6 | 0.00 | 1.09 | 0.00 | 62 | 1008.2 |
| 20260506225105 | 60 | 67 | 0.9 | 2.6 | 0.00 | 1.09 | 0.00 | 62 | 1008.2 |
| 20260506224612 | 61 | 101 | 1.7 | 2.6 | 0.00 | 0.00 | 0.00 | 62 | 1008.1 |
| 20260506224607 | 61 | 101 | 1.7 | 2.6 | 0.00 | 1.09 | 0.00 | 62 | 1008.1 |
| 20260506224108 | 61 | 50 | 0.9 | 2.6 | 0.00 | 1.09 | 0.00 | 63 | 1007.9 |
| 20260506223614 | 61 | 24 | 0.9 | 0.9 | 0.00 | 1.09 | 0.00 | 62 | 1007.7 |
| 20260506223609 | 61 | 24 | 0.9 | 0.9 | 0.00 | 1.09 | 0.00 | 62 | 1007.7 |
| 20260506223110 | 61 | 0 | 0.0 | 0.0 | 0.00 | 1.09 | 0.00 | 62 | 1007.5 |
| 20260506222612 | 61 | 0 | 0.0 | 0.9 | 0.00 | 1.09 | 0.00 | 62 | 1007.5 |
| 20260506222114 | 61 | 0 | 0.0 | 0.0 | 0.00 | 1.09 | 0.00 | 61 | 1007.4 |
| 20260506221619 | 61 | 0 | 0.0 | 0.0 | 0.00 | 1.09 | 0.00 | 62 | 1007.2 |
| 20260506221614 | 61 | 0 | 0.0 | 0.0 | 0.00 | 1.09 | 0.00 | 62 | 1007.2 |
| 20260506221115 | 62 | 0 | 0.0 | 0.0 | 0.00 | 1.09 | 0.00 | 61 | 1007.1 |
| 20260506220621 | 62 | 0 | 0.0 | 0.9 | 0.00 | 1.09 | 0.00 | 61 | 1007.0 |
| 20260506220616 | 62 | 0 | 0.0 | 0.9 | 0.00 | 1.09 | 0.00 | 61 | 1007.0 |
| 20260506220118 | 62 | 0 | 0.0 | 0.0 | 0.00 | 1.09 | 0.00 | 60 | 1006.7 |
| 20260506215624 | 62 | 0 | 0.0 | 0.0 | 0.00 | 1.09 | 0.00 | 59 | 1006.6 |
| 20260506215619 | 62 | 0 | 0.0 | 0.0 | 0.00 | 1.09 | 0.00 | 59 | 1006.6 |
| 20260506215120 | 62 | 0 | 0.0 | 0.0 | 0.00 | 1.09 | 0.00 | 59 | 1006.5 |
| 20260506214626 | 62 | 0 | 0.0 | 0.0 | 0.00 | 1.09 | 0.00 | 60 | 1006.5 |
| 20260506214621 | 62 | 0 | 0.0 | 0.0 | 0.00 | 1.09 | 0.00 | 60 | 1006.5 |
| 20260506214123 | 62 | 0 | 0.0 | 0.0 | 0.00 | 1.09 | 0.00 | 60 | 1006.6 |
| 20260506213624 | 62 | 0 | 0.0 | 0.0 | 0.00 | 1.09 | 0.00 | 60 | 1006.6 |
| 20260506213125 | 62 | 0 | 0.0 | 0.0 | 0.00 | 1.09 | 0.00 | 59 | 1006.6 |
| 20260506212632 | 62 | 0 | 0.0 | 0.0 | 0.00 | 1.09 | 0.00 | 59 | 1006.6 |
| 20260506212626 | 62 | 0 | 0.0 | 0.0 | 0.00 | 1.09 | 0.00 | 59 | 1006.6 |
| 20260506212127 | 62 | 0 | 0.0 | 0.0 | 0.00 | 1.09 | 0.00 | 59 | 1006.6 |
| 20260506211629 | 62 | 0 | 0.0 | 0.0 | 0.00 | 1.09 | 0.00 | 59 | 1006.5 |
| 20260506211127 | 62 | 0 | 0.0 | 0.0 | 1.58 | 1.09 | 0.00 | 59 | 1006.5 |
| 20260506210625 | 62 | 0 | 0.0 | 0.0 | 1.58 | 1.09 | 0.00 | 59 | 1006.5 |
| 20260506210123 | 62 | 0 | 0.0 | 0.0 | 1.59 | 1.09 | 0.00 | 59 | 1006.6 |
| 20260506205621 | 62 | 0 | 0.0 | 0.0 | 1.59 | 1.09 | 0.00 | 59 | 1006.6 |
| 20260506205119 | 62 | 0 | 0.0 | 0.0 | 1.59 | 1.09 | 0.00 | 60 | 1006.6 |
| 20260506204617 | 62 | 0 | 0.0 | 0.0 | 1.59 | 1.09 | 0.00 | 60 | 1006.6 |
| 20260506204115 | 62 | 0 | 0.0 | 0.0 | 1.59 | 1.09 | 0.00 | 59 | 1006.7 |
| 20260506203614 | 62 | 0 | 0.0 | 0.0 | 1.59 | 1.09 | 0.00 | 59 | 1006.6 |
| 20260506203111 | 62 | 0 | 0.0 | 0.0 | 1.59 | 1.09 | 0.00 | 59 | 1006.6 |
| 20260506202614 | 62 | 0 | 0.0 | 0.0 | 1.59 | 1.09 | 0.00 | 59 | 1006.7 |
| 20260506202609 | 62 | 0 | 0.0 | 0.0 | 1.59 | 1.09 | 0.00 | 59 | 1006.7 |
| 20260506201610 | 62 | 358 | 1.7 | 20.9 | 1.59 | 1.09 | 0.00 | 60 | 1006.7 |
| 20260506201605 | 62 | 358 | 1.7 | 20.9 | 1.59 | 1.09 | 0.00 | 60 | 1006.7 |
| 20260506200603 | 62 | 2 | 0.0 | 0.0 | 0.01 | 9.41 | 0.00 | 59 | 1006.6 |
| 20260506200558 | 62 | 2 | 0.0 | 0.0 | 0.01 | 9.41 | 0.00 | 59 | 1006.6 |
| 20260506195102 | 62 | 0 | 0.0 | 0.0 | 0.00 | 9.40 | 0.00 | 59 | 1006.7 |
| 20260506194604 | 62 | 347 | 0.0 | 0.0 | 0.22 | 9.40 | 0.00 | 59 | 1006.7 |
| 20260506194559 | 62 | 347 | 0.0 | 0.0 | 0.22 | 9.40 | 0.00 | 59 | 1006.7 |
| 20260506194058 | 62 | 350 | 0.0 | 0.0 | 0.23 | 9.40 | 0.00 | 59 | 1006.8 |
| 20260506193556 | 62 | 7 | 0.0 | 0.9 | 0.23 | 9.40 | 0.00 | 60 | 1006.8 |
| 20260506193054 | 62 | 176 | 0.9 | 1.7 | 0.23 | 9.40 | 0.00 | 61 | 1006.8 |
| 20260506192553 | 62 | 174 | 0.0 | 0.9 | 0.23 | 9.40 | 0.00 | 60 | 1007.0 |
| 20260506192050 | 62 | 178 | 0.0 | 0.9 | 0.23 | 9.40 | 0.00 | 60 | 1007.0 |
| 20260506191548 | 63 | 133 | 0.9 | 2.6 | 0.23 | 9.40 | 0.00 | 60 | 1006.9 |
| 20260506191046 | 63 | 160 | 1.7 | 3.5 | 0.53 | 9.40 | 0.00 | 59 | 1006.7 |
| 20260506190544 | 63 | 49 | 0.9 | 2.6 | 4.13 | 9.40 | 0.00 | 58 | 1006.9 |
| 20260506190042 | 64 | 187 | 0.9 | 2.6 | 9.40 | 9.40 | 0.00 | 57 | 1007.0 |
| 20260506185540 | 64 | 218 | 4.3 | 26.1 | 9.40 | 9.40 | 0.00 | 57 | 1006.9 |
| 20260506185036 | 64 | 123 | 7.0 | 38.2 | 9.40 | 9.40 | 0.00 | 57 | 1006.9 |
| 20260506184534 | 64 | 201 | 6.1 | 19.1 | 9.18 | 9.18 | 0.00 | 56 | 1006.8 |
| 20260506184031 | 65 | 192 | 0.9 | 2.6 | 9.17 | 9.17 | 0.00 | 55 | 1006.5 |
| 20260506183529 | 65 | 151 | 1.7 | 1.7 | 9.17 | 9.17 | 0.00 | 55 | 1006.3 |
| 20260506182525 | 66 | 227 | 3.5 | 28.7 | 9.17 | 9.17 | 0.00 | 53 | 1006.1 |
| 20260506182023 | 66 | 230 | 2.6 | 30.4 | 9.17 | 9.17 | 0.00 | 53 | 1005.8 |
| 20260506181521 | 66 | 229 | 7.8 | 46.1 | 9.17 | 9.17 | 0.00 | 52 | 1005.8 |
| 20260506181017 | 67 | 255 | 20.9 | 93.0 | 8.87 | 8.87 | 0.00 | 52 | 1005.8 |
| 20260506180453 | 67 | 241 | 26.9 | 151.2 | 5.27 | 5.27 | 0.00 | 51 | 1005.7 |
| 20260506175933 | 68 | 225 | 0.0 | 0.9 | 0.00 | 0.00 | 0.00 | 50 | 1005.6 |
| 20260506175434 | 68 | 226 | 0.0 | 0.0 | 0.00 | 0.00 | 0.00 | 50 | 1005.6 |
| 20260506174935 | 68 | 226 | 0.0 | 0.9 | 0.00 | 0.00 | 0.00 | 49 | 1005.6 |
| 20260506174436 | 69 | 225 | 0.0 | 0.0 | 0.00 | 0.00 | 0.00 | 49 | 1005.6 |
| 20260506173942 | 69 | 225 | 0.0 | 0.0 | 0.00 | 0.00 | 0.00 | 47 | 1005.6 |
| 20260506173937 | 69 | 225 | 0.0 | 0.0 | 0.00 | 0.00 | 0.00 | 47 | 1005.6 |
| 20260506173444 | 70 | 193 | 0.9 | 1.7 | 0.00 | 0.00 | 0.00 | 47 | 1005.6 |
| 20260506173439 | 70 | 193 | 0.9 | 1.7 | 0.00 | 0.00 | 0.00 | 47 | 1005.6 |
| 20260506172945 | 71 | 180 | 0.9 | 0.9 | 0.00 | 0.00 | 0.00 | 45 | 1005.8 |
| 20260506172940 | 71 | 180 | 0.9 | 0.9 | 0.00 | 0.00 | 0.00 | 45 | 1005.8 |
| 20260506172446 | 72 | 180 | 0.9 | 1.7 | 0.00 | 0.00 | 0.00 | 44 | 1005.7 |
| 20260506172441 | 72 | 180 | 0.9 | 1.7 | 0.00 | 0.00 | 0.00 | 44 | 1005.7 |
| 20260506171942 | 73 | 180 | 0.0 | 0.0 | 0.00 | 0.00 | 0.00 | 42 | 1005.7 |
| 20260506171444 | 73 | 180 | 0.9 | 2.6 | 0.00 | 0.00 | 0.00 | 42 | 1005.7 |
| 20260506170945 | 74 | 180 | 1.7 | 2.6 | 0.00 | 0.00 | 0.00 | 41 | 1005.7 |
| 20260506170446 | 74 | 168 | 0.9 | 2.6 | 0.00 | 0.00 | 0.00 | 41 | 1005.8 |
| 20260506165947 | 72 | 127 | 0.9 | 3.5 | 0.00 | 0.00 | 0.00 | 42 | 1005.8 |
| 20260506165454 | 73 | 45 | 0.9 | 1.7 | 0.00 | 0.00 | 0.00 | 40 | 1005.9 |
| 20260506165448 | 73 | 45 | 0.9 | 1.7 | 0.00 | 0.00 | 0.00 | 40 | 1005.9 |
| 20260506164950 | 73 | 45 | 0.0 | 0.9 | 0.00 | 0.00 | 0.00 | 39 | 1005.7 |
| 20260506164451 | 73 | 45 | 0.0 | 0.9 | 0.00 | 0.00 | 0.00 | 38 | 1005.6 |
| 20260506163952 | 73 | 45 | 0.0 | 1.7 | 0.00 | 0.00 | 0.00 | 38 | 1005.6 |
| 20260506163458 | 74 | 45 | 0.9 | 0.9 | 0.00 | 0.00 | 0.00 | 38 | 1005.7 |
| 20260506163454 | 74 | 45 | 0.9 | 0.9 | 0.00 | 0.00 | 0.00 | 38 | 1005.7 |
| 20260506162959 | 74 | 45 | 0.9 | 0.9 | 0.00 | 0.00 | 0.00 | 38 | 1005.6 |
| 20260506162955 | 74 | 45 | 0.9 | 0.9 | 0.00 | 0.00 | 0.00 | 38 | 1005.6 |
| 20260506162501 | 74 | 86 | 0.9 | 1.7 | 0.00 | 0.00 | 0.00 | 37 | 1005.5 |
| 20260506162456 | 74 | 86 | 0.9 | 1.7 | 0.00 | 0.00 | 0.00 | 37 | 1005.5 |
| 20260506161957 | 75 | 90 | 0.9 | 0.9 | 0.00 | 0.00 | 0.00 | 37 | 1005.6 |
| 20260506161458 | 75 | 90 | 0.9 | 0.9 | 0.00 | 0.00 | 0.00 | 37 | 1005.6 |
| 20260506160959 | 75 | 62 | 1.7 | 2.6 | 0.00 | 0.00 | 0.00 | 37 | 1005.7 |
| 20260506160501 | 75 | 83 | 0.9 | 1.7 | 0.00 | 0.00 | 0.00 | 37 | 1005.8 |
| 20260506160002 | 75 | 49 | 1.7 | 2.6 | 0.00 | 0.00 | 0.00 | 37 | 1005.9 |
| 20260506155503 | 76 | 45 | 0.9 | 1.7 | 0.00 | 0.00 | 0.00 | 36 | 1006.0 |
| 20260506155004 | 76 | 45 | 0.9 | 1.7 | 0.00 | 0.00 | 0.00 | 37 | 1006.0 |
| 20260506154505 | 76 | 45 | 0.9 | 1.7 | 0.00 | 0.00 | 0.00 | 36 | 1006.2 |
| 20260506154007 | 76 | 45 | 0.9 | 1.7 | 0.00 | 0.00 | 0.00 | 36 | 1006.2 |
| 20260506153508 | 76 | 45 | 0.9 | 0.9 | 0.00 | 0.00 | 0.00 | 36 | 1006.1 |
| 20260506153009 | 76 | 69 | 1.7 | 1.7 | 0.00 | 0.00 | 0.00 | 35 | 1006.2 |
| 20260506152510 | 76 | 90 | 0.9 | 1.7 | 0.00 | 0.00 | 0.00 | 35 | 1006.3 |
| 20260506152011 | 75 | 90 | 0.9 | 0.9 | 0.00 | 0.00 | 0.00 | 36 | 1006.4 |
| 20260506151512 | 74 | 90 | 0.0 | 0.9 | 0.00 | 0.00 | 0.00 | 36 | 1006.4 |
| 20260506151014 | 74 | 90 | 0.9 | 1.7 | 0.00 | 0.00 | 0.00 | 36 | 1006.4 |
| 20260506150515 | 74 | 90 | 0.9 | 1.7 | 0.00 | 0.00 | 0.00 | 36 | 1006.5 |
| 20260506150016 | 74 | 45 | 0.9 | 1.7 | 0.00 | 0.00 | 0.00 | 35 | 1006.6 |
| 20260506145517 | 74 | 45 | 0.9 | 1.7 | 0.00 | 0.00 | 0.00 | 35 | 1006.6 |
| 20260506145018 | 75 | 45 | 0.9 | 0.9 | 0.00 | 0.00 | 0.00 | 35 | 1006.7 |
| 20260506144520 | 75 | 45 | 0.0 | 0.9 | 0.00 | 0.00 | 0.00 | 35 | 1006.6 |
| 20260506144021 | 76 | 45 | 0.0 | 0.9 | 0.00 | 0.00 | 0.00 | 34 | 1006.7 |
| 20260506143522 | 76 | 45 | 0.0 | 0.9 | 0.00 | 0.00 | 0.00 | 34 | 1006.7 |
| 20260506143023 | 77 | 45 | 0.0 | 0.9 | 0.00 | 0.00 | 0.00 | 33 | 1006.8 |
| 20260506142524 | 78 | 45 | 0.0 | 0.9 | 0.00 | 0.00 | 0.00 | 33 | 1006.8 |
| 20260506142026 | 79 | 45 | 0.0 | 0.0 | 0.00 | 0.00 | 0.00 | 32 | 1006.9 |
| 20260506141527 | 79 | 45 | 0.0 | 0.0 | 0.00 | 0.00 | 0.00 | 32 | 1007.0 |
| 20260506141028 | 80 | 45 | 0.0 | 0.9 | 0.00 | 0.00 | 0.00 | 31 | 1007.0 |
| 20260506140529 | 80 | 45 | 0.0 | 0.0 | 0.00 | 0.00 | 0.00 | 31 | 1007.1 |
| 20260506140030 | 81 | 45 | 0.0 | 0.9 | 0.00 | 0.00 | 0.00 | 30 | 1007.1 |
| 20260506135532 | 81 | 45 | 0.0 | 0.9 | 0.00 | 0.00 | 0.00 | 30 | 1007.3 |
| 20260506135034 | 82 | 45 | 0.0 | 0.9 | 0.00 | 0.00 | 0.00 | 31 | 1007.3 |
| 20260506134534 | 82 | 45 | 0.0 | 0.9 | 0.00 | 0.00 | 0.00 | 31 | 1007.4 |
| 20260506134040 | 82 | 45 | 0.0 | 0.9 | 0.00 | 0.00 | 0.00 | 30 | 1007.5 |
| 20260506134035 | 82 | 45 | 0.0 | 0.9 | 0.00 | 0.00 | 0.00 | 30 | 1007.5 |
| 20260506133536 | 83 | 45 | 0.0 | 0.0 | 0.00 | 0.00 | 0.00 | 31 | 1007.5 |
| 20260506133043 | 80 | 45 | 0.0 | 0.9 | 0.00 | 0.00 | 0.00 | 32 | 1007.6 |
| 20260506133038 | 80 | 45 | 0.0 | 0.9 | 0.00 | 0.00 | 0.00 | 32 | 1007.6 |
| 20260506132544 | 80 | 45 | 0.0 | 1.7 | 0.00 | 0.00 | 0.00 | 31 | 1007.8 |
| 20260506132539 | 80 | 45 | 0.0 | 1.7 | 0.00 | 0.00 | 0.00 | 31 | 1007.8 |
| 20260506132040 | 80 | 45 | 0.9 | 1.7 | 0.00 | 0.00 | 0.00 | 28 | 1007.8 |
| 20260506131541 | 82 | 45 | 0.0 | 1.7 | 0.00 | 0.00 | 0.00 | 27 | 1007.8 |
| 20260506131047 | 84 | 45 | 0.0 | 0.9 | 0.00 | 0.00 | 0.00 | 26 | 1007.8 |
| 20260506131042 | 84 | 45 | 0.0 | 0.9 | 0.00 | 0.00 | 0.00 | 26 | 1007.8 |
| 20260506130544 | 85 | 45 | 0.9 | 1.7 | 0.00 | 0.00 | 0.00 | 24 | 1008.0 |
| 20260506130045 | 85 | 48 | 0.9 | 0.9 | 0.00 | 0.00 | 0.00 | 26 | 1007.9 |
| 20260506125551 | 82 | 6 | 0.0 | 0.9 | 0.00 | 0.00 | 0.00 | 27 | 1008.0 |
| 20260506125546 | 82 | 6 | 0.0 | 0.9 | 0.00 | 0.00 | 0.00 | 27 | 1008.0 |
| 20260506125047 | 83 | 53 | 0.0 | 0.0 | 0.00 | 0.00 | 0.00 | 27 | 1008.0 |
| 20260506124548 | 84 | 20 | 0.9 | 1.7 | 0.00 | 0.00 | 0.00 | 27 | 1008.1 |
| 20260506124050 | 85 | 40 | 0.9 | 2.6 | 0.00 | 0.00 | 0.00 | 28 | 1008.1 |
| 20260506123551 | 80 | 45 | 0.0 | 0.9 | 0.00 | 0.00 | 0.00 | 30 | 1008.1 |
| 20260506123057 | 79 | 45 | 0.0 | 0.9 | 0.00 | 0.00 | 0.00 | 31 | 1008.3 |
| 20260506123052 | 79 | 45 | 0.0 | 0.9 | 0.00 | 0.00 | 0.00 | 31 | 1008.3 |
| 20260506122554 | 79 | 45 | 0.0 | 0.9 | 0.00 | 0.00 | 0.00 | 31 | 1008.3 |
| 20260506122054 | 79 | 45 | 0.0 | 0.0 | 0.00 | 0.00 | 0.00 | 31 | 1008.2 |
| 20260506121556 | 78 | 45 | 0.0 | 0.9 | 0.00 | 0.00 | 0.00 | 32 | 1008.2 |
| 20260506121057 | 77 | 45 | 0.0 | 0.9 | 0.00 | 0.00 | 0.00 | 33 | 1008.3 |
| 20260506120558 | 76 | 45 | 0.9 | 1.7 | 0.00 | 0.00 | 0.00 | 33 | 1008.3 |
| 20260506120059 | 75 | 45 | 0.0 | 0.9 | 0.00 | 0.00 | 0.00 | 35 | 1008.3 |
| 20260506115600 | 75 | 45 | 0.0 | 0.9 | 0.00 | 0.00 | 0.00 | 34 | 1008.3 |
| 20260506115102 | 75 | 45 | 0.0 | 0.0 | 0.00 | 0.00 | 0.00 | 35 | 1008.4 |
| 20260506114603 | 75 | 45 | 0.9 | 0.9 | 0.00 | 0.00 | 0.00 | 35 | 1008.5 |
| 20260506114104 | 74 | 45 | 0.0 | 0.0 | 0.00 | 0.00 | 0.00 | 35 | 1008.4 |
| 20260506113605 | 74 | 45 | 0.0 | 0.0 | 0.00 | 0.00 | 0.00 | 36 | 1008.5 |
| 20260506113106 | 74 | 45 | 0.9 | 1.7 | 0.00 | 0.00 | 0.00 | 35 | 1008.6 |
| 20260506112613 | 74 | 45 | 0.9 | 1.7 | 0.00 | 0.00 | 0.00 | 36 | 1008.7 |
| 20260506112608 | 74 | 45 | 0.9 | 1.7 | 0.00 | 0.00 | 0.00 | 36 | 1008.7 |
| 20260506112109 | 74 | 45 | 0.9 | 1.7 | 0.00 | 0.00 | 0.00 | 37 | 1008.7 |
| 20260506111610 | 73 | 101 | 0.9 | 1.7 | 0.00 | 0.00 | 0.00 | 37 | 1008.7 |
| 20260506111111 | 73 | 180 | 0.0 | 0.9 | 0.00 | 0.00 | 0.00 | 38 | 1008.7 |
| 20260506110612 | 72 | 164 | 0.9 | 0.9 | 0.00 | 0.00 | 0.00 | 38 | 1008.8 |
| 20260506110114 | 72 | 45 | 0.9 | 1.7 | 0.00 | 0.00 | 0.00 | 38 | 1008.8 |
| 20260506105615 | 72 | 45 | 0.0 | 0.9 | 0.00 | 0.00 | 0.00 | 38 | 1008.8 |
| 20260506105116 | 72 | 45 | 0.9 | 1.7 | 0.00 | 0.00 | 0.00 | 38 | 1008.8 |
| 20260506104617 | 72 | 45 | 0.0 | 0.9 | 0.00 | 0.00 | 0.00 | 39 | 1008.9 |
| 20260506104118 | 71 | 45 | 0.9 | 1.7 | 0.00 | 0.00 | 0.00 | 40 | 1008.9 |
| 20260506103620 | 71 | 45 | 0.9 | 0.9 | 0.00 | 0.00 | 0.00 | 40 | 1009.0 |
| 20260506103121 | 70 | 45 | 0.0 | 0.9 | 0.00 | 0.00 | 0.00 | 42 | 1009.2 |
| 20260506102622 | 70 | 45 | 0.0 | 0.9 | 0.00 | 0.00 | 0.00 | 42 | 1009.2 |
| 20260506102123 | 69 | 45 | 0.9 | 1.7 | 0.00 | 0.00 | 0.00 | 42 | 1009.2 |
| 20260506101625 | 69 | 45 | 0.9 | 1.7 | 0.00 | 0.00 | 0.00 | 43 | 1009.1 |
| 20260506101126 | 69 | 45 | 0.0 | 0.9 | 0.00 | 0.00 | 0.00 | 43 | 1009.1 |
| 20260506100627 | 68 | 45 | 0.9 | 1.7 | 0.00 | 0.00 | 0.00 | 44 | 1009.2 |
| 20260506100128 | 68 | 83 | 0.9 | 1.7 | 0.00 | 0.00 | 0.00 | 44 | 1009.2 |
| 20260506095629 | 68 | 106 | 0.9 | 2.6 | 0.00 | 0.00 | 0.00 | 43 | 1009.2 |
| 20260506095135 | 68 | 80 | 0.9 | 2.6 | 0.00 | 0.00 | 0.00 | 43 | 1009.2 |
| 20260506095130 | 68 | 80 | 0.9 | 2.6 | 0.00 | 0.00 | 0.00 | 43 | 1009.2 |
| 20260506094632 | 68 | 90 | 0.9 | 1.7 | 0.00 | 0.00 | 0.00 | 43 | 1009.2 |
| 20260506094134 | 68 | 131 | 0.9 | 0.9 | 0.00 | 0.00 | 0.00 | 45 | 1009.4 |
| 20260506093634 | 67 | 81 | 0.9 | 1.7 | 0.00 | 0.00 | 0.00 | 45 | 1009.3 |
| 20260506093135 | 67 | 89 | 0.0 | 0.9 | 0.00 | 0.00 | 0.00 | 46 | 1009.3 |
| 20260506092636 | 67 | 90 | 0.9 | 0.9 | 0.00 | 0.00 | 0.00 | 47 | 1009.4 |
| 20260506092138 | 66 | 98 | 0.9 | 2.6 | 0.00 | 0.00 | 0.00 | 47 | 1009.3 |
| 20260506091644 | 66 | 124 | 0.9 | 1.7 | 0.00 | 0.00 | 0.00 | 47 | 1009.4 |
| 20260506091639 | 66 | 124 | 0.9 | 1.7 | 0.00 | 0.00 | 0.00 | 47 | 1009.4 |
| 20260506091140 | 66 | 65 | 0.9 | 1.7 | 0.00 | 0.00 | 0.00 | 47 | 1009.3 |
| 20260506090641 | 66 | 72 | 0.9 | 1.7 | 0.00 | 0.00 | 0.00 | 48 | 1009.4 |
| 20260506090143 | 66 | 66 | 0.9 | 1.7 | 0.00 | 0.00 | 0.00 | 49 | 1009.3 |
| 20260506085649 | 66 | 90 | 0.9 | 1.7 | 0.00 | 0.00 | 0.00 | 50 | 1009.3 |
| 20260506085644 | 66 | 90 | 0.9 | 1.7 | 0.00 | 0.00 | 0.00 | 50 | 1009.3 |
| 20260506085145 | 65 | 86 | 0.9 | 1.7 | 0.00 | 0.00 | 0.00 | 50 | 1009.2 |
| 20260506084651 | 65 | 58 | 0.9 | 1.7 | 0.00 | 0.00 | 0.00 | 50 | 1009.3 |
| 20260506084646 | 65 | 58 | 0.9 | 1.7 | 0.00 | 0.00 | 0.00 | 50 | 1009.3 |
| 20260506084152 | 65 | 45 | 0.9 | 2.6 | 0.00 | 0.00 | 0.00 | 50 | 1009.4 |
| 20260506084147 | 65 | 45 | 0.9 | 2.6 | 0.00 | 0.00 | 0.00 | 50 | 1009.4 |
| 20260506083649 | 65 | 56 | 1.7 | 3.5 | 0.00 | 0.00 | 0.00 | 50 | 1009.2 |
| 20260506083150 | 64 | 49 | 0.9 | 2.6 | 0.00 | 0.00 | 0.00 | 51 | 1009.3 |
| 20260506082651 | 64 | 51 | 0.9 | 1.7 | 0.00 | 0.00 | 0.00 | 51 | 1009.3 |
| 20260506082152 | 64 | 58 | 0.9 | 1.7 | 0.00 | 0.00 | 0.00 | 51 | 1009.3 |
| 20260506081653 | 64 | 62 | 0.9 | 1.7 | 0.00 | 0.00 | 0.00 | 51 | 1009.3 |
| 20260506081155 | 64 | 61 | 0.9 | 2.6 | 0.00 | 0.00 | 0.00 | 51 | 1009.2 |
| 20260506080656 | 64 | 60 | 1.7 | 3.5 | 0.00 | 0.00 | 0.00 | 52 | 1009.3 |
| 20260506080157 | 64 | 52 | 1.7 | 2.6 | 0.00 | 0.00 | 0.00 | 51 | 1009.3 |
| 20260506073204 | 63 | 84 | 0.9 | 1.7 | 0.00 | 0.00 | 0.00 | 53 | 1009.4 |
| 20260506072706 | 63 | 77 | 0.9 | 2.6 | 0.00 | 0.00 | 0.00 | 53 | 1009.4 |
| 20260506072207 | 63 | 95 | 0.9 | 2.6 | 0.00 | 0.00 | 0.00 | 54 | 1009.3 |
| 20260506071708 | 63 | 67 | 1.7 | 3.5 | 0.00 | 0.00 | 0.00 | 54 | 1009.3 |
| 20260506071209 | 63 | 38 | 0.9 | 1.7 | 0.00 | 0.00 | 0.00 | 54 | 1009.2 |
| 20260506070715 | 63 | 90 | 0.9 | 1.7 | 0.00 | 0.00 | 0.00 | 54 | 1009.2 |
| 20260506070710 | 63 | 90 | 0.9 | 1.7 | 0.00 | 0.00 | 0.00 | 54 | 1009.2 |
| 20260506070217 | 63 | 106 | 0.9 | 2.6 | 0.00 | 0.00 | 0.00 | 54 | 1009.2 |
| 20260506070212 | 63 | 106 | 0.9 | 2.6 | 0.00 | 0.00 | 0.00 | 54 | 1009.2 |
| 20260506062221 | 62 | 47 | 0.9 | 1.7 | 0.00 | 0.00 | 0.00 | 60 | 1009.3 |
| 20260506061722 | 62 | 135 | 0.9 | 1.7 | 0.00 | 0.00 | 0.00 | 60 | 1009.1 |
| 20260506061224 | 62 | 151 | 0.9 | 3.5 | 0.00 | 0.00 | 0.00 | 61 | 1009.1 |
| 20260506060725 | 61 | 45 | 0.9 | 1.7 | 0.00 | 0.00 | 0.00 | 61 | 1009.1 |
| 20260506060226 | 61 | 45 | 0.9 | 1.7 | 0.00 | 0.00 | 0.00 | 62 | 1009.0 |
| 20260506051238 | 60 | 0 | 0.0 | 0.0 | 0.00 | 0.00 | 0.00 | 67 | 1008.6 |
| 20260506050739 | 60 | 0 | 0.0 | 0.9 | 0.00 | 0.00 | 0.00 | 68 | 1008.6 |
| 20260506050241 | 59 | 0 | 0.0 | 0.0 | 0.00 | 0.00 | 0.00 | 68 | 1008.7 |
| 20260506044744 | 59 | 0 | 0.0 | 0.0 | 0.00 | 0.00 | 0.00 | 67 | 1008.5 |
| 20260506044246 | 59 | 0 | 0.0 | 0.0 | 0.00 | 0.00 | 0.00 | 67 | 1008.3 |
| 20260506043747 | 59 | 0 | 0.0 | 0.0 | 0.00 | 0.00 | 0.00 | 67 | 1008.4 |
| 20260506043248 | 59 | 0 | 0.0 | 0.0 | 0.00 | 0.00 | 0.00 | 67 | 1008.4 |
| 20260506042749 | 59 | 0 | 0.0 | 0.0 | 0.00 | 0.00 | 0.00 | 66 | 1008.4 |
| 20260506042250 | 59 | 0 | 0.0 | 0.0 | 0.00 | 0.00 | 0.00 | 67 | 1008.3 |
| 20260506041751 | 59 | 0 | 0.0 | 0.0 | 0.00 | 0.00 | 0.00 | 67 | 1008.2 |
| 20260506041254 | 58 | 0 | 0.0 | 0.0 | 0.00 | 0.00 | 0.00 | 67 | 1008.0 |
| 20260506040759 | 58 | 0 | 0.0 | 0.0 | 0.00 | 0.00 | 0.00 | 67 | 1007.9 |
| 20260506040754 | 58 | 0 | 0.0 | 0.0 | 0.00 | 0.00 | 0.00 | 67 | 1007.9 |
| 20260506040255 | 58 | 0 | 0.0 | 0.0 | 0.00 | 0.00 | 0.00 | 69 | 1007.9 |
| 20260506035756 | 58 | 0 | 0.0 | 0.0 | 0.00 | 0.00 | 0.00 | 68 | 1007.9 |
| 20260506035258 | 58 | 0 | 0.0 | 0.0 | 0.00 | 0.00 | 0.00 | 68 | 1007.9 |
| 20260506034759 | 59 | 0 | 0.0 | 0.0 | 0.00 | 0.00 | 0.00 | 67 | 1007.9 |
| 20260506034300 | 59 | 0 | 0.0 | 0.0 | 0.00 | 0.00 | 0.00 | 67 | 1007.9 |
| 20260506033801 | 59 | 0 | 0.0 | 0.0 | 0.00 | 0.00 | 0.00 | 67 | 1007.9 |
| 20260506033302 | 59 | 0 | 0.0 | 0.9 | 0.00 | 0.00 | 0.00 | 66 | 1007.9 |
| 20260506032804 | 59 | 0 | 0.0 | 0.0 | 0.00 | 0.00 | 0.00 | 64 | 1007.9 |
| 20260506032306 | 59 | 0 | 0.0 | 0.0 | 0.00 | 0.00 | 0.00 | 63 | 1007.9 |
| 20260506031806 | 59 | 0 | 0.0 | 0.0 | 0.00 | 0.00 | 0.00 | 62 | 1007.9 |
| 20260506031307 | 59 | 0 | 0.0 | 0.0 | 0.00 | 0.00 | 0.00 | 62 | 1007.7 |
| 20260506030808 | 59 | 0 | 0.0 | 0.0 | 0.00 | 0.00 | 0.00 | 63 | 1007.7 |
| 20260506030310 | 59 | 0 | 0.0 | 0.0 | 0.00 | 0.00 | 0.00 | 63 | 1007.6 |
| 20260506025811 | 59 | 0 | 0.0 | 0.0 | 0.00 | 0.00 | 0.00 | 63 | 1007.5 |
| 20260506025312 | 59 | 0 | 0.0 | 0.0 | 0.00 | 0.00 | 0.00 | 64 | 1007.4 |
| 20260506024813 | 59 | 0 | 0.0 | 0.9 | 0.00 | 0.00 | 0.00 | 64 | 1007.4 |
| 20260506024314 | 59 | 0 | 0.0 | 0.9 | 0.00 | 0.00 | 0.00 | 63 | 1007.3 |
| 20260506023816 | 59 | 0 | 0.0 | 0.0 | 0.00 | 0.00 | 0.00 | 61 | 1007.3 |
| 20260506023317 | 59 | 0 | 0.0 | 0.0 | 0.00 | 0.00 | 0.00 | 61 | 1007.3 |
| 20260506022823 | 60 | 0 | 0.0 | 0.0 | 0.00 | 0.00 | 0.00 | 60 | 1007.3 |
| 20260506022818 | 60 | 0 | 0.0 | 0.0 | 0.00 | 0.00 | 0.00 | 60 | 1007.3 |
| 20260506022319 | 60 | 0 | 0.0 | 0.0 | 0.00 | 0.00 | 0.00 | 57 | 1007.2 |
| 20260506021821 | 60 | 0 | 0.0 | 0.0 | 0.00 | 0.00 | 0.00 | 55 | 1007.3 |
| 20260506021322 | 60 | 0 | 0.0 | 0.0 | 0.00 | 0.00 | 0.00 | 55 | 1007.3 |
| 20260506020823 | 60 | 0 | 0.0 | 0.0 | 0.00 | 0.00 | 0.00 | 55 | 1007.3 |
| 20260506020324 | 61 | 0 | 0.0 | 0.0 | 0.00 | 0.00 | 0.00 | 55 | 1007.5 |
| 20260506015825 | 61 | 0 | 0.0 | 0.9 | 0.00 | 0.00 | 0.00 | 55 | 1007.5 |
| 20260506015327 | 61 | 0 | 0.0 | 0.0 | 0.00 | 0.00 | 0.00 | 54 | 1007.6 |
| 20260506014828 | 61 | 0 | 0.0 | 0.0 | 0.00 | 0.00 | 0.00 | 53 | 1007.4 |
| 20260506014329 | 61 | 0 | 0.0 | 0.0 | 0.00 | 0.00 | 0.00 | 52 | 1007.4 |
| 20260506013836 | 61 | 0 | 0.0 | 0.0 | 0.00 | 0.00 | 0.00 | 51 | 1007.5 |
| 20260506013830 | 61 | 0 | 0.0 | 0.0 | 0.00 | 0.00 | 0.00 | 51 | 1007.5 |
| 20260506013332 | 61 | 0 | 0.0 | 0.0 | 0.00 | 0.00 | 0.00 | 51 | 1007.5 |
| 20260506012334 | 62 | 0 | 0.0 | 0.0 | 0.00 | 0.00 | 0.00 | 49 | 1007.3 |
| 20260506011835 | 62 | 0 | 0.0 | 0.0 | 0.00 | 0.00 | 0.00 | 48 | 1007.3 |
| 20260506010838 | 62 | 0 | 0.0 | 0.0 | 0.00 | 0.00 | 0.00 | 48 | 1007.2 |
| 20260506010344 | 62 | 0 | 0.0 | 0.0 | 0.00 | 0.00 | 0.00 | 46 | 1007.2 |
| 20260506010339 | 62 | 0 | 0.0 | 0.0 | 0.00 | 0.00 | 0.00 | 46 | 1007.2 |
| 20260506005840 | 62 | 0 | 0.0 | 0.0 | 0.00 | 0.00 | 0.00 | 46 | 1007.1 |
| 20260506005341 | 62 | 0 | 0.0 | 0.0 | 0.00 | 0.00 | 0.00 | 46 | 1007.1 |
| 20260506004847 | 62 | 0 | 0.0 | 0.0 | 0.00 | 0.00 | 0.00 | 46 | 1007.2 |
| 20260506004842 | 62 | 0 | 0.0 | 0.0 | 0.00 | 0.00 | 0.00 | 46 | 1007.2 |
| 20260506004344 | 62 | 0 | 0.0 | 0.0 | 0.00 | 0.00 | 0.00 | 46 | 1007.3 |
| 20260506003845 | 62 | 0 | 0.0 | 0.0 | 0.00 | 0.00 | 0.00 | 46 | 1007.2 |
| 20260506003346 | 62 | 0 | 0.0 | 0.0 | 0.00 | 0.00 | 0.00 | 46 | 1007.1 |
| 20260506002847 | 62 | 0 | 0.0 | 0.0 | 0.00 | 0.00 | 0.00 | 45 | 1007.2 |
| 20260506002354 | 62 | 0 | 0.0 | 0.0 | 0.00 | 0.00 | 0.00 | 45 | 1007.3 |
| 20260506002348 | 62 | 0 | 0.0 | 0.0 | 0.00 | 0.00 | 0.00 | 45 | 1007.3 |